Weather History for Flippin, AR

Change the Weather History Date:

Tuesday, July 23, 2013

  Actual Average Record
Temperature  
Mean Temperature 84 °F -  
Max Temperature 100 °F 88 °F 102 °F (2005)
Min Temperature 69 °F 67 °F 57 °F (2007)
Cooling Degree Days 20    
Growing Degree Days 34 (Base 50)    
Moisture  
Dew Point 64 °F    
Average Humidity 65    
Maximum Humidity 78    
Minimum Humidity 35    
Precipitation  
Precipitation 0.00 in - - ()
Sea Level Pressure  
Sea Level Pressure 29.88 in    
Wind  
Wind Speed 4 mph (SSE)    
Max Wind Speed 15 mph    
Max Gust Speed 24 mph    
Visibility 10 miles    
Events Thunderstorm    
Averages and records for this station are not official NWS values.
T = Trace of Precipitation, MM = Missing Value Source: NWS Daily Summary

Daily Weather History Graph

Daily Weather History Graph

Search for Another Location

Airport:

Trip Planner

Search our weather history database for the weather conditions in past years. The results will help you decide how hot, cold, wet, or windy it might be!

Date:

Astronomy

Jul. 23, 2013 Rise Set
Actual Time 6:10 AM CDT 8:22 PM CDT
Civil Twilight 5:41 AM CDT 8:51 PM CDT
Nautical Twilight 5:05 AM CDT 9:27 PM CDT
Astronomical Twilight 4:26 AM CDT 10:05 PM CDT
Moon 8:56 PM CDT 7:15 AM CDT
Length of Visible Light 15h 10m
Length of Day
14h 12m
Full, 99% of the Moon is Illuminated
Jul 23
Full
Jul 29
Last Quarter
Aug 6
New
Aug 14
First Quarter
Aug 20
Full

Hourly Weather History & Observations

Time (CDT) Temp. Heat Index Dew Point Humidity Pressure Visibility Wind Dir Wind Speed Gust Speed Precip Events Conditions
12:35 AM 77.0 °F - 60.8 °F 57% 29.90 in 10.0 mi SSW 3.5 mph - N/A   Clear
12:55 AM 75.2 °F - 62.6 °F 65% 29.90 in 10.0 mi South 3.5 mph - N/A   Clear
1:15 AM 73.4 °F - 62.6 °F 69% 29.90 in 10.0 mi SSE 3.5 mph - N/A   Clear
1:35 AM 73.4 °F - 62.6 °F 69% 29.90 in 10.0 mi SE 3.5 mph - N/A   Clear
1:55 AM 71.6 °F - 62.6 °F 73% 29.90 in 10.0 mi Calm Calm - N/A   Clear
2:15 AM 73.4 °F - 62.6 °F 69% 29.90 in 10.0 mi Calm Calm - N/A   Clear
2:35 AM 73.4 °F - 62.6 °F 69% 29.89 in 10.0 mi Calm Calm - N/A   Clear
2:55 AM 71.6 °F - 62.6 °F 73% 29.89 in 10.0 mi Calm Calm - N/A   Clear
3:15 AM 71.6 °F - 62.6 °F 73% 29.89 in 10.0 mi ESE 4.6 mph - N/A   Clear
3:35 AM 71.6 °F - 62.6 °F 73% 29.88 in 10.0 mi ESE 3.5 mph - N/A   Clear
3:55 AM 71.6 °F - 62.6 °F 73% 29.86 in 10.0 mi Calm Calm - N/A   Clear
4:15 AM 71.6 °F - 62.6 °F 73% 29.85 in 10.0 mi Calm Calm - N/A   Clear
4:36 AM 69.8 °F - 62.6 °F 78% 29.85 in 10.0 mi Calm Calm - N/A   Clear
4:55 AM 69.8 °F - 62.6 °F 78% 29.85 in 10.0 mi Calm Calm - N/A   Clear
5:15 AM 71.6 °F - 62.6 °F 73% 29.86 in 10.0 mi Calm Calm - N/A   Clear
5:35 AM 71.6 °F - 62.6 °F 73% 29.86 in 10.0 mi Calm Calm - N/A   Clear
5:55 AM 73.4 °F - 62.6 °F 69% 29.87 in 10.0 mi Calm Calm - N/A   Clear
6:15 AM 71.6 °F - 62.6 °F 73% 29.88 in 10.0 mi Calm Calm - N/A   Clear
6:35 AM 71.6 °F - 62.6 °F 73% 29.89 in 10.0 mi Calm Calm - N/A   Clear
6:55 AM 73.4 °F - 64.4 °F 73% 29.90 in 10.0 mi NE 4.6 mph - N/A   Partly Cloudy
7:15 AM 73.4 °F - 64.4 °F 73% 29.91 in 10.0 mi ENE 4.6 mph - N/A   Partly Cloudy
7:35 AM 71.6 °F - 62.6 °F 73% 29.93 in 10.0 mi ENE 5.8 mph - N/A   Partly Cloudy
7:55 AM 73.4 °F - 64.4 °F 73% 29.92 in 10.0 mi ENE 6.9 mph - N/A Thunderstorm Clear
8:55 AM 78.8 °F - 64.4 °F 61% 29.92 in 10.0 mi East 8.1 mph - N/A   Clear
9:15 AM 78.8 °F - 64.4 °F 61% 29.92 in 10.0 mi SE 4.6 mph - N/A   Clear
9:36 AM 80.6 °F 82.3 °F 64.4 °F 58% 29.93 in 10.0 mi Calm Calm - N/A   Clear
10:15 AM 82.4 °F 84.6 °F 66.2 °F 58% 29.93 in 10.0 mi ESE 6.9 mph - N/A   Clear
10:55 AM 86.0 °F 89.4 °F 68.0 °F 55% 29.92 in 10.0 mi SSW 8.1 mph - N/A   Clear
11:16 AM 87.8 °F 92.6 °F 69.8 °F 55% 29.91 in 10.0 mi South 6.9 mph - N/A   Clear
11:35 AM 89.6 °F 94.7 °F 69.8 °F 52% 29.90 in 10.0 mi SSW 6.9 mph - N/A   Clear
12:15 PM 93.2 °F 100.5 °F 71.6 °F 49% 29.88 in 10.0 mi SW 11.5 mph 19.6 mph N/A   Clear
12:55 PM 96.8 °F 103.1 °F 69.8 °F 41% 29.87 in 10.0 mi West 10.4 mph 18.4 mph N/A   Scattered Clouds
1:15 PM 96.8 °F 103.1 °F 69.8 °F 41% 29.86 in 10.0 mi WNW 12.7 mph - N/A   Scattered Clouds
1:35 PM 96.8 °F 103.1 °F 69.8 °F 41% 29.85 in 10.0 mi NW 8.1 mph - N/A   Partly Cloudy
1:56 PM 98.6 °F 105.5 °F 69.8 °F 39% 29.85 in 10.0 mi WNW 10.4 mph 19.6 mph N/A   Scattered Clouds
2:15 PM 98.6 °F 105.5 °F 69.8 °F 39% 29.84 in 10.0 mi WSW 11.5 mph 20.7 mph N/A   Mostly Cloudy
2:35 PM 98.6 °F 105.5 °F 69.8 °F 39% 29.82 in 10.0 mi West 11.5 mph 21.9 mph N/A   Partly Cloudy
3:35 PM 100.4 °F 107.8 °F 69.8 °F 37% 29.80 in 10.0 mi West 13.8 mph 20.7 mph N/A Thunderstorm Unknown
3:55 PM 100.4 °F 106.3 °F 68.0 °F 35% 29.81 in 10.0 mi NW 10.4 mph 20.7 mph N/A Thunderstorm Unknown
4:15 PM 89.6 °F 90.1 °F 62.6 °F 40% 29.81 in 10.0 mi East 15.0 mph 24.2 mph N/A Thunderstorm Unknown
4:55 PM 80.6 °F 81.5 °F 60.8 °F 51% 29.84 in 10.0 mi SE 10.4 mph 20.7 mph N/A   Unknown
5:35 PM 75.2 °F - 62.6 °F 65% 29.87 in 10.0 mi East 11.5 mph 19.6 mph N/A Thunderstorm Thunderstorm
5:55 PM 73.4 °F - 62.6 °F 69% 29.88 in 10.0 mi ESE 9.2 mph - N/A Thunderstorm Thunderstorm
6:16 PM 71.6 °F - 62.6 °F 73% 29.91 in 4.0 mi SE 5.8 mph - N/A Thunderstorm Thunderstorm
6:35 PM 71.6 °F - 62.6 °F 73% 29.88 in 10.0 mi ESE 12.7 mph 19.6 mph N/A Thunderstorm Mostly Cloudy
6:55 PM 71.6 °F - 62.6 °F 73% 29.89 in 10.0 mi East 9.2 mph - N/A Thunderstorm Mostly Cloudy
7:15 PM 69.8 °F - 60.8 °F 73% 29.90 in 2.5 mi SSE 5.8 mph - N/A Thunderstorm Thunderstorm
7:35 PM 69.8 °F - 60.8 °F 73% 29.90 in 10.0 mi SSE 4.6 mph - N/A Thunderstorm Thunderstorm
7:55 PM 69.8 °F - 60.8 °F 73% 29.91 in 10.0 mi ESE 3.5 mph - N/A Thunderstorm Scattered Clouds
8:15 PM 69.8 °F - 60.8 °F 73% 29.93 in 10.0 mi NNE 6.9 mph - N/A Thunderstorm Thunderstorm
8:35 PM 69.8 °F - 60.8 °F 73% 29.91 in 10.0 mi ESE 4.6 mph - N/A Thunderstorm Thunderstorm
8:55 PM 69.8 °F - 60.8 °F 73% 29.91 in 10.0 mi SSW 6.9 mph - N/A   Mostly Cloudy
9:15 PM 69.8 °F - 60.8 °F 73% 29.88 in 10.0 mi SW 4.6 mph - N/A   Mostly Cloudy
9:35 PM 69.8 °F - 60.8 °F 73% 29.89 in 10.0 mi SW 9.2 mph - N/A   Partly Cloudy
9:56 PM 69.8 °F - 60.8 °F 73% 29.88 in 10.0 mi WSW 5.8 mph - N/A   Clear
10:15 PM 69.8 °F - 62.6 °F 78% 29.88 in 10.0 mi SSW 3.5 mph - N/A   Clear
10:35 PM 69.8 °F - 62.6 °F 78% 29.88 in 10.0 mi SSW 6.9 mph - N/A   Clear
10:55 PM 69.8 °F - 62.6 °F 78% 29.89 in 10.0 mi SW 5.8 mph - N/A   Clear
11:55 PM 71.6 °F - 60.8 °F 69% 29.88 in 9.0 mi Calm Calm - N/A   Clear